STARLINK-35306, 67361

Orbit data source: Space-Track

STARLINK-35306, 67361 is a payload satellite owned by SpaceX/Seattle (US) in LEO that was launched on Fri, 09 Jan 2026 UTC via an FALCON 9 launch vehicle from the Air Force Eastern Test Range (AFETR). Payload-class satellites include a variety of spacecraft equipped with specific instruments for various scientific and technological missions. These include communications satellites like Starlink; space stations such as the ISS; scientific satellites like the Hubble; Earth observation satellites from companies like Planet Labs, Umbra, and HawkEye 360; GPS; miniature CubeSats for education and research; and military/defense satellites.

Loading next visibility...
Identifier
67361, 2026-003AD
Orbit
LEO
Country
Flag of USUS
Related business
Manufacturer
SpaceX/Seattle
Mission
Operational Commercial Communications
Bus & Motor
STARLINK V2MO, Unknown motor
Mass
575 kg wet, ~530 kg dry
Launch date (UTC)
2026-01-09 (5 months ago)
Launch vehicle
FALCON 9
Launch site
Air Force Eastern Test Range (AFETR)
Object type
Payload
Rocket body
Debris
Shape & HBR
Box + 2 Pan, 17.7 m
Radar Cross Section
36.964 m², Large (>1 m²)

Expand to show TLE details & history
Last TLE update: 1 day ago

TLE from 1 day ago
0 STARLINK-35306
1 67361U 26003AD  26170.62002158  .00016635  00000-0  61261-3 0  9994
2 67361  43.0024  11.3443 0001325 256.6460 103.4244 15.27582925 24419
Epoch: 2026-06-19T14:52Z
TLE epoch observation values (Epoch: 2026-06-19T14:52:49.864Z)
Latitude
-0.00002°
Longitude
-119.70987°
Altitude
483.027 km
Speed
7.626 km/s
True Right ascension
00h 45m 22s
True Declination
0° 00' 00"
Sunlit
Object was in daylight at epoch
Visualization orbit readout
Latitude
Unknown
Longitude
Unknown
Altitude
Unknown
Speed
Unknown
Apparent Right ascension
Unknown
Apparent Declination
Unknown
Sunlit
N/A
Visualization observer readout
Local Sidereal Time
07:20:57
Azimuth
Unknown
Elevation
Unknown
Doppler factor
Unknown
Orbital elements
Apogee altitude
485.894 km
Perigee altitude
484.076 km
Semi-major axis
6,863.122 km
Eccentricity
0.00013
Inclination
43.0024°
RAAN
11.3443°
Arg. of periapsis
256.646°
True anomaly
103.43917°
Mean anomaly
103.4244°
Eccentric anomaly
103.43178°
Mean motion
3.81734 °/min
Orbital period
94.31 mins
BSTAR
0.00061261
Loading maneuver chart data...
Computing Atmospheric mass density...
Loading historical data...
Loading historical data...
Loading historical data...
Loading historical data...
Loading historical data...
Loading historical data...
Loading historical data...

Documentation

Showing up to 5 results
|